Zurück zum Katalog

COSMOS 1555

GLONASS

AktivNavigationMEO
NORAD 14978·PAYLOAD·🇷🇺 Russia

Gestartet May 19, 1984 von Baikonur Cosmodrome

Loading…

Nächste Überflüge (nächste 24 Stunden)

TLE

AktuellSource: Space-Track

Epoche: Sep 14, 2026, 04:33 UTC

1 14978U 84047B   26257.18980749 -.00000070  00000-0  00000-0 0  9998
2 14978  66.3428 325.7163 0013638 181.5569 181.2250  2.13101448301404

Verfolge COSMOS 1555 in Echtzeit mit AllMySat

Download on the App Store